TimeCST,TemperatureF,Dew PointF,Humidity,Sea Level PressureIn,VisibilityMPH,Wind Direction,Wind SpeedMPH,Gust SpeedMPH,PrecipitationIn,Events,Conditions,WindDirDegrees,DateUTC
12:15 AM,21.2,18.5,89,30.08,10.0,Calm,Calm,-,N/A,,Mostly Cloudy,0,2012-11-06 06:15:00
12:35 AM,21.9,19.8,91,30.06,10.0,Calm,Calm,-,N/A,,Overcast,0,2012-11-06 06:35:00
12:55 AM,23.4,21.2,91,30.05,10.0,Calm,Calm,-,N/A,,Overcast,0,2012-11-06 06:55:00
1:15 AM,25.3,23.4,92,30.03,10.0,SSE,3.5,-,N/A,,Overcast,160,2012-11-06 07:15:00
1:35 AM,28.8,25.9,89,30.02,10.0,SSE,4.6,-,N/A,,Overcast,160,2012-11-06 07:35:00
1:55 AM,29.7,27.7,92,30.01,10.0,SSE,4.6,-,N/A,,Overcast,160,2012-11-06 07:55:00
2:15 AM,30.7,28.4,91,30.01,10.0,SSE,5.8,-,N/A,,Overcast,160,2012-11-06 08:15:00
2:35 AM,31.1,28.2,89,30.00,10.0,South,5.8,-,N/A,,Overcast,170,2012-11-06 08:35:00
2:55 AM,31.5,28.2,88,29.99,10.0,South,5.8,-,N/A,,Overcast,170,2012-11-06 08:55:00
3:15 AM,31.8,28.4,87,29.99,10.0,South,5.8,-,N/A,,Overcast,180,2012-11-06 09:15:00
3:35 AM,31.8,28.8,88,29.99,7.0,South,5.8,-,N/A,,Overcast,190,2012-11-06 09:35:00
3:55 AM,31.8,28.9,89,29.98,7.0,South,6.9,-,N/A,,Overcast,180,2012-11-06 09:55:00
4:15 AM,31.8,28.9,89,29.97,7.0,South,8.1,-,N/A,,Overcast,170,2012-11-06 10:15:00
4:35 AM,31.8,28.9,89,29.96,7.0,South,8.1,-,N/A,,Overcast,170,2012-11-06 10:35:00
4:55 AM,31.6,28.9,90,29.95,7.0,South,6.9,-,N/A,,Overcast,170,2012-11-06 10:55:00
5:15 AM,31.6,28.9,90,29.94,7.0,South,6.9,-,N/A,,Overcast,170,2012-11-06 11:15:00
5:35 AM,31.6,28.9,90,29.93,7.0,South,6.9,-,N/A,,Overcast,170,2012-11-06 11:35:00
5:55 AM,31.8,28.6,88,29.93,7.0,South,6.9,-,N/A,,Overcast,180,2012-11-06 11:55:00
6:15 AM,32.0,28.4,87,29.93,7.0,South,6.9,-,N/A,,Overcast,180,2012-11-06 12:15:00
6:35 AM,32.0,28.2,86,29.93,7.0,South,6.9,-,N/A,Snow,Light Snow,180,2012-11-06 12:35:00
6:55 AM,32.0,28.2,86,29.91,7.0,South,8.1,-,N/A,Snow,Light Snow,180,2012-11-06 12:55:00
7:15 AM,31.8,28.4,87,29.92,4.0,South,8.1,-,N/A,Rain,Freezing Rain,180,2012-11-06 13:15:00
7:35 AM,31.5,28.9,90,29.92,2.5,South,8.1,-,N/A,Rain,Freezing Rain,180,2012-11-06 13:35:00
7:55 AM,31.1,29.3,93,29.91,1.8,South,10.4,-,N/A,,Overcast,180,2012-11-06 13:55:00
8:15 AM,30.9,29.7,95,29.91,1.5,South,8.1,-,N/A,,Overcast,170,2012-11-06 14:15:00
8:35 AM,30.9,29.3,94,29.90,2.0,South,8.1,-,N/A,,Overcast,170,2012-11-06 14:35:00
8:55 AM,31.1,29.8,95,29.90,1.2,South,6.9,-,N/A,,Overcast,170,2012-11-06 14:55:00
9:15 AM,30.9,29.8,96,29.89,1.0,SSE,6.9,-,N/A,,Overcast,160,2012-11-06 15:15:00
9:35 AM,30.9,30.0,96,29.89,1.0,South,6.9,-,0.01,,Overcast,170,2012-11-06 15:35:00
9:55 AM,31.1,30.2,96,29.89,1.0,SSE,8.1,-,0.01,,Overcast,160,2012-11-06 15:55:00
10:15 AM,31.1,30.2,96,29.89,1.0,SSE,5.8,-,0.01,,Overcast,160,2012-11-06 16:15:00
10:35 AM,31.5,30.7,97,29.88,0.8,SSE,5.8,-,0.01,,Overcast,150,2012-11-06 16:35:00
10:55 AM,31.6,30.9,97,29.87,1.0,SSE,8.1,-,0.01,Rain,Freezing Rain,160,2012-11-06 16:55:00
11:15 AM,31.8,31.1,97,29.86,1.2,SSE,8.1,-,0.01,Rain,Freezing Rain,150,2012-11-06 17:15:00
11:35 AM,31.8,31.1,97,29.85,1.2,SSE,8.1,-,0.01,Rain,Freezing Rain,150,2012-11-06 17:35:00
11:55 AM,31.8,31.1,97,29.84,1.2,SSE,6.9,-,0.01,Rain,Freezing Rain,150,2012-11-06 17:55:00
12:15 PM,31.8,31.1,97,29.83,1.0,SSE,5.8,-,N/A,Rain,Freezing Rain,160,2012-11-06 18:15:00
12:35 PM,32.0,31.1,96,29.83,1.0,SSE,5.8,-,0.01,Rain,Heavy Rain,160,2012-11-06 18:35:00
12:55 PM,32.0,31.3,97,29.82,1.2,SSE,5.8,-,0.01,,Overcast,160,2012-11-06 18:55:00
1:15 PM,32.0,31.8,99,29.82,1.5,SSE,6.9,-,N/A,Rain,Light Rain,150,2012-11-06 19:15:00
1:35 PM,32.2,32.0,99,29.81,2.0,SSE,5.8,-,N/A,Rain,Rain,160,2012-11-06 19:35:00
1:55 PM,32.4,32.0,99,29.81,2.5,SSE,5.8,-,N/A,Rain,Light Rain,160,2012-11-06 19:55:00
2:15 PM,32.2,32.0,99,29.81,2.0,SSE,5.8,-,N/A,Rain,Heavy Rain,160,2012-11-06 20:15:00
2:35 PM,32.0,31.8,99,29.81,2.0,SSE,6.9,-,N/A,Rain,Rain,150,2012-11-06 20:35:00
2:55 PM,32.0,31.8,99,29.82,1.8,SSE,4.6,-,0.01,Rain,Rain,150,2012-11-06 20:55:00
3:15 PM,32.0,32.0,100,29.82,2.0,SSE,5.8,-,N/A,Rain,Rain,150,2012-11-06 21:15:00
3:35 PM,32.0,31.6,99,29.82,1.2,Calm,Calm,-,0.01,Rain,Heavy Rain,0,2012-11-06 21:35:00
4:15 PM,32.0,31.6,99,29.83,1.2,Calm,Calm,-,0.01,Rain,Light Rain,0,2012-11-06 22:15:00
4:35 PM,32.0,31.6,99,29.83,1.2,Calm,Calm,-,0.01,Rain,Light Rain,0,2012-11-06 22:35:00
4:55 PM,32.0,31.8,99,29.84,2.5,Calm,Calm,-,0.01,Rain,Light Rain,0,2012-11-06 22:55:00
5:15 PM,32.0,31.8,99,29.84,3.0,SE,3.5,-,N/A,Rain,Rain,140,2012-11-06 23:15:00
5:35 PM,32.0,32.0,100,29.84,3.0,SE,3.5,-,N/A,,Light Drizzle,140,2012-11-06 23:35:00
5:55 PM,32.0,32.0,100,29.85,3.0,Calm,Calm,-,N/A,,Overcast,0,2012-11-06 23:55:00
6:35 PM,32.0,32.0,100,29.85,2.5,Calm,Calm,-,N/A,,Overcast,0,2012-11-07 00:35:00
6:55 PM,32.0,32.0,100,29.85,1.8,Calm,Calm,-,N/A,,Overcast,0,2012-11-07 00:55:00
7:15 PM,32.0,32.0,100,29.86,1.8,Calm,Calm,-,N/A,,Overcast,0,2012-11-07 01:15:00
7:35 PM,32.0,32.0,100,29.86,1.5,Calm,Calm,-,N/A,,Overcast,0,2012-11-07 01:35:00
7:55 PM,32.0,32.0,100,29.86,1.2,Calm,Calm,-,N/A,,Overcast,0,2012-11-07 01:55:00
8:15 PM,32.0,32.0,100,29.86,1.2,Calm,Calm,-,N/A,,Light Drizzle,0,2012-11-07 02:15:00
8:35 PM,32.0,32.0,100,29.87,1.0,Calm,Calm,-,N/A,,Light Drizzle,0,2012-11-07 02:35:00
8:55 PM,32.0,32.0,100,29.87,0.8,Calm,Calm,-,N/A,,Light Drizzle,0,2012-11-07 02:55:00
9:15 PM,32.0,32.0,100,29.88,0.8,Calm,Calm,-,N/A,Snow,Light Snow,0,2012-11-07 03:15:00
9:35 PM,32.0,32.0,100,29.88,0.8,Calm,Calm,-,N/A,,Light Drizzle,0,2012-11-07 03:35:00
9:55 PM,32.0,32.0,100,29.88,0.8,Calm,Calm,-,N/A,,Light Drizzle,0,2012-11-07 03:55:00
10:15 PM,32.0,32.0,100,29.88,1.0,Calm,Calm,-,N/A,,Light Drizzle,0,2012-11-07 04:15:00
10:35 PM,32.0,32.0,100,29.89,0.8,Calm,Calm,-,N/A,,Overcast,0,2012-11-07 04:35:00
10:55 PM,32.0,32.0,100,29.89,0.5,Calm,Calm,-,N/A,Fog,Fog,0,2012-11-07 04:55:00
11:15 PM,32.0,32.0,100,29.89,0.5,Calm,Calm,-,N/A,Fog,Fog,0,2012-11-07 05:15:00
11:35 PM,32.0,32.0,100,29.90,0.5,Calm,Calm,-,N/A,Fog,Fog,0,2012-11-07 05:35:00
11:55 PM,32.0,32.0,100,29.90,0.2,Calm,Calm,-,N/A,Fog,Fog,0,2012-11-07 05:55:00